User: anonymous   Login
Location: Riverside
(39.1734°N, 77.8561°W)
Time: 00:10:41
(UTC+00:00)
Language:

STARS - Orbit

View from above orbital plane
View from above orbital plane
View from above satellite
View from above satellite

Ground track
Ground track

The orbit data is extracted from the following two-line orbital elements,

1 33498U 09002G   19324.14174147  .00000198  00000-0  34362-4 0  9996
2 33498  98.2879 178.1865 0011748  38.3587 321.8457 14.79052152582835
Epoch (UTC): 20 November 2019 03:24:06
Eccentricity: 0.0011748
inclination: 98.2879°
perigee height: 624 km
apogee height: 640 km
right ascension of ascending node: 178.1865°
argument of perigee: 38.3587°
revolutions per day: 14.79052152
mean anomaly at epoch: 321.8457°
orbit number at epoch: 58283

The dashed part of the orbit path shows where the satellite is in the earth's shadow,  

DLR